Flag for Canada Weather past 2 weeks in Saanich, British Columbia, Canada

Now
52 °F

Light rain. Fog.


Feels Like: 48 °F
Forecast: 49 / 55 °F
Wind: 12 mph from Southeast

Location: Victoria Int. Airportb. C.

Current Time: Mar 29, 2015 at 3:48:23 PM

Latest Report: Mar 29, 2015 at 3:00 PM


Visibility: 6 mi

Pressure: 30.17 "Hg

Humidity: 88%

Dew point: 48 °F

Location of SaanichLocation

Historic Weather in Saanich — Graph

°F

Saanich temperature yesterday

Maximum temperature yesterday: 57 °F (at 3:00 PM)
Minimum temperature yesterday: 50 °F (at 3:00 AM)
Average temperature yesterday: 53 °F

Past Weeks' High & Low Weather Summary

 TemperatureHumidityPressure
High59 °F (Mar 14, 3:00 PM)100% (Mar 16, 6:00 AM)30.31 "Hg (Mar 16, 6:00 AM)
Low36 °F (Mar 24, 7:03 AM)41% (Mar 16, 5:00 PM)29.74 "Hg (Mar 15, 3:00 PM)
Average49 °F85%30.06 "Hg
* Reported Mar 14 3:00 PM — Mar 29 3:00 PM, Saanich, Weather by CustomWeather, © 2015

Note: Actual official high and low records may vary slightly from our data, if they occured in-between our weather recording intervals... More about our weather records

Advertising

Saanich weather history for previous 24 hours

 ConditionsComfort  
Time TempWeatherWind HumidityBarometerVisibility
3:00 PM
Sun, Mar 29
52 °FLight rain. Fog.12 mph88%30.17 "Hg6 mi
2:00 PM52 °FLight rain. Mostly cloudy.14 mph82%30.17 "Hg10 mi
1:00 PM54 °FLight rain. Mostly cloudy.15 mph77%30.17 "Hg20 mi
12:00 PM52 °FLight rain. Mostly cloudy.17 mph82%30.16 "Hg20 mi
11:00 AM52 °FLight rain. Broken clouds.14 mph82%30.16 "Hg30 mi
10:00 AM50 °FLight rain. More clouds than sun.14 mph82%30.16 "Hg20 mi
9:00 AM50 °FLight rain. More clouds than sun.14 mph82%30.16 "Hg20 mi
8:00 AM50 °FMore clouds than sun.15 mph82%30.16 "Hg20 mi
7:00 AM48 °FLight rain. Overcast.10 mph87%30.17 "Hg20 mi
6:00 AM48 °FLight rain. Overcast.5 mph94%30.18 "Hg20 mi
5:00 AM48 °FLight rain. Overcast.2 mph94%30.19 "Hg20 mi
4:00 AM48 °FMostly cloudy.8 mph94%30.19 "Hg20 mi
3:00 AM48 °FOvercast.6 mph94%30.22 "Hg20 mi
2:00 AM48 °FLight rain. Overcast.6 mph94%30.24 "Hg20 mi
1:00 AM48 °FLight rain. Overcast.8 mph94%30.26 "Hg20 mi
12:00 AM50 °FLight rain. Mostly cloudy.No wind82%30.28 "Hg20 mi
11:00 PM
Sat, Mar 28
50 °FLight rain. Mostly cloudy.3 mph82%30.28 "Hg20 mi
10:00 PM52 °FLight rain. Overcast.3 mph72%30.28 "Hg20 mi
9:00 PM52 °FMostly cloudy.3 mph72%30.27 "Hg20 mi
8:00 PM52 °FPartly sunny.6 mph77%30.27 "Hg30 mi
7:00 PM52 °FPartly sunny.8 mph72%30.29 "Hg30 mi
6:00 PM54 °FBroken clouds.12 mph72%30.29 "Hg30 mi
5:00 PM55 °FBroken clouds.7 mph67%30.30 "Hg30 mi
4:00 PM55 °FLight rain. Mostly cloudy.9 mph67%30.29 "Hg30 mi
3:00 PM57 °FPartly sunny.9 mph59%30.29 "Hg30 mi
Weather by CustomWeather, © 2015

See weather overviewHow to use our weather pages